Weather in Motygino

Russia / Krasnoyarsk Krai     58°10′53″N   94°42′17″E
temp.,
°C
wind,
m/s
gust,
m/s
humid.,
%
clouds,
%
prec.,
mm/h
press.,
hPa
HPBL,
m
14 august, sun
sun1401:00+10ene11745 0.0 100611
04:00+9ene2278100 0.0 100525
07:00+11ene1272100 0.0 100494
10:00+15sse3764100 0.0 1003480
13:00+15sse458499 0.2 1002637
16:00+15sse468494 0.2 1002634
19:00+14se3898100 1.6 1000392
22:00+14sw4119796 4.5 999711
15 august, mon
mon1501:00+13sw4997100 5.1 999798
04:00+11sw4997100 0.5 999832
07:00+11sw41096100 1.0 1000935
10:00+12sw5109598 0.8 1000923
13:00+13sw489195 4.6 10001085
16:00+14wsw489024 1.7 10011199
19:00+11w3892100 3.2 1003504
22:00+9wnw0194100 0.0 100312
16 august, tue
tue1601:00+8wsw2897100 0.8 1003686
04:00+7wsw3797100 1.1 1002617
07:00+7sw3697100 1.6 1003484
10:00+7sw2496100 0.3 1003378
13:00+8sw2494100 0.7 1004409
16:00+9wsw3591100 0.2 1005562
19:00+8wsw379799 0.3 1006467
22:00+7sw2699100 0.4 1006426
17 august, wed
wed1701:00+7sw2799100 0.8 1007474
04:00+7sw3799100 0.5 1007484
07:00+7wsw3799100 1.0 1007488
10:00+8wsw3799100 0.6 1008467
13:00+8wsw3698100 0.8 1009564
16:00+9wsw3697100 0.1 1009460
19:00+8wsw2698100 0.1 1010353
22:00+8wsw2599100 0.1 1010225
18 august, thu
thu1801:00+7wsw1299100 0.1 101075
04:00+7sw2298100 0.0 100958
07:00+8sw239690 0.0 1009165
10:00+12wsw237066 0.0 1009867
13:00+13sw347099 0.5 1009964
16:00+14w3461100 0.4 10091137
19:00+12w2375100 0.5 100969
22:00+8wsw2293100 0.0 101040